DW9106 Madrid ES current weather conditions

sailwx.info

Wind from 268

Air temperature 19.4° C
Dewpoint 10.7° C

Last reported at 2014-Aug-20 03:47 UTC.
Time now 2014-Aug-20 04:55 UTC

Location: N 40°23' W 003°38'.
View on Google Maps.

See reports from other nearby stations

  
Tides and Currents Weather Stations Pressure Air Temp Water Temp Dewpoint Dewpoint Depression Visibility Wind Speed Wind Dir Waves Ship Positions
date/time (UTC)wind fromknots sea level pressurealtimeterstation pressurevisibilityair tempwater tempwave heightnotes
2014-Aug-20 03:47 268 19.4
2014-Aug-20 03:32 263 20.0
2014-Aug-20 03:17 263 20.6
2014-Aug-20 03:02 263 20.6
2014-Aug-20 02:47 261 20.6
2014-Aug-20 02:32 280 21.1
2014-Aug-20 02:17 284 21.1
2014-Aug-20 02:02 294 21.7
2014-Aug-20 01:47 306 21.7
2014-Aug-20 01:32 034 22.2
2014-Aug-20 01:17 034 22.8
2014-Aug-20 01:02 034 23.3
2014-Aug-20 00:47 030 23.9
2014-Aug-20 00:32 229 2 gusting 7 23.9
2014-Aug-20 00:17 154 1 gusting 6 23.9
2014-Aug-20 00:02 229 1 gusting 6 24.4
2014-Aug-19 23:47 260 0 gusting 5 24.4
2014-Aug-19 23:32 254 25.0
2014-Aug-19 23:17 243 1 gusting 7 25.0
2014-Aug-19 23:02 277 3 gusting 9 25.6
2014-Aug-19 22:47 258 0 gusting 6 25.6
2014-Aug-19 22:32 235 0 gusting 4 25.6
2014-Aug-19 22:01 279 1 gusting 6 26.7
2014-Aug-19 21:46 119 2 gusting 7 26.7
2014-Aug-19 21:31 125 3 gusting 7 26.7
2014-Aug-19 21:01 235 0 gusting 9 26.7
2014-Aug-19 20:46 207 4 gusting 8 27.2
2014-Aug-19 20:16 236 2 gusting 10 27.8
2014-Aug-19 20:01 275 2 gusting 9 27.8
2014-Aug-19 19:46 249 1 gusting 5 27.8
2014-Aug-19 19:31 281 3 gusting 6 28.3
2014-Aug-19 19:16 260 2 gusting 8 28.9
2014-Aug-19 19:01 244 1 gusting 7 28.9
2014-Aug-19 18:46 258 2 gusting 12 29.4
2014-Aug-19 18:31 257 3 gusting 10 30.0
2014-Aug-19 18:16 261 3 gusting 13 30.6
2014-Aug-19 18:01 236 4 gusting 13 30.6
2014-Aug-19 17:46 298 5 gusting 13 31.1
2014-Aug-19 17:31 249 4 gusting 11 31.1
2014-Aug-19 17:16 271 3 gusting 8 31.7
2014-Aug-19 17:01 088 2 gusting 12 31.7
2014-Aug-19 16:46 236 4 gusting 14 31.7
2014-Aug-19 16:31 263 3 gusting 11 31.7
2014-Aug-19 16:16 236 3 gusting 10 31.7
2014-Aug-19 16:01 280 4 gusting 12 32.2
2014-Aug-19 15:46 264 4 gusting 12 32.2
2014-Aug-19 15:31 244 3 gusting 8 32.2
2014-Aug-19 15:16 252 4 gusting 12 32.2
2014-Aug-19 15:01 192 3 gusting 12 32.2
2014-Aug-19 14:46 305 5 gusting 11 32.2
2014-Aug-19 14:31 301 2 gusting 9 31.7
2014-Aug-19 14:16 265 3 gusting 15 31.7
2014-Aug-19 14:01 202 4 gusting 13 31.1
2014-Aug-19 13:46 024 1 gusting 10 31.1
2014-Aug-19 13:31 279 4 gusting 10 31.1
2014-Aug-19 13:16 130 4 gusting 8 31.1
2014-Aug-19 13:01 133 4 gusting 11 31.1
2014-Aug-19 12:46 252 2 gusting 9 30.6
2014-Aug-19 12:31 189 5 gusting 12 30.0
2014-Aug-19 12:16 254 3 gusting 13 30.0
2014-Aug-19 12:01 173 5 gusting 11 30.0
2014-Aug-19 11:46 245 4 gusting 7 29.4
2014-Aug-19 11:31 227 3 gusting 9 29.4
2014-Aug-19 11:16 202 2 gusting 7 29.4
2014-Aug-19 11:01 032 3 gusting 9 28.9
2014-Aug-19 10:46 280 3 gusting 6 28.3
2014-Aug-19 10:31 053 0 gusting 6 27.2
2014-Aug-19 10:16 090 1 gusting 6 26.7
2014-Aug-19 10:01 276 1 gusting 5 26.7
2014-Aug-19 09:45 156 0 gusting 5 26.1
2014-Aug-19 09:30 168 0 gusting 2 26.1
2014-Aug-19 09:15 175 0 gusting 3 25.0
2014-Aug-19 09:00 047 23.9
2014-Aug-19 08:45 061 3 gusting 6 23.3
2014-Aug-19 08:30 026 1 gusting 5 22.2
2014-Aug-19 08:15 049 2 gusting 5 21.7
2014-Aug-19 08:00 059 2 gusting 6 21.1
2014-Aug-19 07:45 015 2 gusting 6 20.6
2014-Aug-19 07:30 074 1 gusting 6 20.6
2014-Aug-19 07:15 050 3 gusting 6 20.6
2014-Aug-19 07:00 067 1 gusting 4 20.6
2014-Aug-19 06:45 051 2 gusting 6 20.0
2014-Aug-19 06:30 037 0 gusting 4 20.0
2014-Aug-19 06:15 047 1 gusting 4 19.4
2014-Aug-19 06:00 042 19.4
2014-Aug-19 05:44 057 18.9
2014-Aug-19 05:29 055 18.9
2014-Aug-19 05:14 047 18.9
2014-Aug-19 04:59 071 18.9
2014-Aug-19 04:44 063 0 gusting 3 18.9
2014-Aug-19 04:29 044 1 gusting 4 19.4
2014-Aug-19 04:14 060 19.4
2014-Aug-19 03:59 060 19.4
2014-Aug-19 03:44 060 0 gusting 1 19.4
2014-Aug-19 03:29 060 0 gusting 3 19.4
2014-Aug-19 03:14 059 19.4
2014-Aug-19 02:59 059 20.0
2014-Aug-19 02:44 059 20.0
2014-Aug-19 02:29 059 20.6
2014-Aug-19 02:14 059 20.0
2014-Aug-19 01:59 059 20.6
2014-Aug-19 01:44 059 20.6
2014-Aug-19 01:29 059 21.1
2014-Aug-19 01:14 059 21.1
2014-Aug-19 00:59 059 21.7
2014-Aug-19 00:29 059 21.7
2014-Aug-19 00:14 059 22.2
2014-Aug-18 23:59 059 22.8
2014-Aug-18 23:44 059 0 gusting 2 22.8
2014-Aug-18 23:30 062 22.8
2014-Aug-18 23:14 062 22.8
2014-Aug-18 22:59 062 23.3
2014-Aug-18 22:44 062 23.3
2014-Aug-18 22:29 062 23.9
2014-Aug-18 22:14 062 23.9
2014-Aug-18 21:59 062 24.4
2014-Aug-18 21:44 062 24.4
2014-Aug-18 21:29 062 0 gusting 1 24.4
2014-Aug-18 21:14 062 25.0
2014-Aug-18 20:59 062 25.0
2014-Aug-18 20:44 049 0 gusting 3 25.6
2014-Aug-18 20:29 047 0 gusting 5 25.6
2014-Aug-18 20:14 040 2 gusting 6 26.1
2014-Aug-18 19:59 054 26.1
2014-Aug-18 19:44 225 0 gusting 6 26.7
2014-Aug-18 19:29 053 0 gusting 3 27.2
2014-Aug-18 19:14 058 27.8
2014-Aug-18 18:59 230 0 gusting 8 28.9
2014-Aug-18 18:44 245 3 gusting 7 30.0
2014-Aug-18 18:29 167 2 gusting 7 30.6
2014-Aug-18 18:14 254 1 gusting 9 30.6
2014-Aug-18 17:59 256 3 gusting 10 31.1
2014-Aug-18 17:28 005 2 gusting 13 31.1
2014-Aug-18 17:13 242 4 gusting 9 31.7
2014-Aug-18 16:58 325 4 gusting 14 31.7
2014-Aug-18 16:43 257 3 gusting 13 32.2
2014-Aug-18 16:28 265 5 gusting 10 31.7
2014-Aug-18 16:13 200 2 gusting 9 31.7
2014-Aug-18 15:58 286 4 gusting 16 32.2
2014-Aug-18 15:43 244 3 gusting 13 31.7
2014-Aug-18 15:28 265 3 gusting 8 31.7
2014-Aug-18 15:13 235 3 gusting 8 32.2
2014-Aug-18 14:58 152 3 gusting 10 32.2
2014-Aug-18 14:43 131 3 gusting 8 32.8
2014-Aug-18 14:28 308 2 gusting 9 32.2
2014-Aug-18 14:13 228 2 gusting 7 32.2
2014-Aug-18 13:58 235 3 gusting 6 31.7
2014-Aug-18 13:43 266 2 gusting 9 31.1
2014-Aug-18 13:28 058 4 gusting 10 30.6
2014-Aug-18 13:13 262 4 gusting 7 30.6
2014-Aug-18 12:58 205 0 gusting 6 30.0
2014-Aug-18 12:43 161 2 gusting 8 30.0
2014-Aug-18 12:28 122 2 gusting 6 30.0
2014-Aug-18 12:13 132 3 gusting 7 29.4
2014-Aug-18 11:58 288 1 gusting 6 29.4
2014-Aug-18 11:43 185 2 gusting 6 28.3
2014-Aug-18 11:28 195 2 gusting 6 28.3
2014-Aug-18 11:13 098 3 gusting 6 27.2
2014-Aug-18 10:58 232 2 gusting 6 26.7
2014-Aug-18 10:43 208 0 gusting 4 26.7
2014-Aug-18 10:28 172 0 gusting 7 26.7
2014-Aug-18 10:13 118 3 gusting 6 26.7
2014-Aug-18 09:58 080 1 gusting 7 26.1
2014-Aug-18 09:42 096 4 gusting 7 25.6
2014-Aug-18 09:27 032 5 gusting 7 25.0
2014-Aug-18 09:12 054 4 gusting 9 25.0
2014-Aug-18 08:57 028 5 gusting 8 25.0
2014-Aug-18 08:42 032 2 gusting 6 23.9
2014-Aug-18 08:27 056 3 gusting 6 23.3
2014-Aug-18 08:12 045 3 gusting 6 22.8
2014-Aug-18 07:57 031 3 gusting 7 22.8
2014-Aug-18 07:42 076 1 gusting 6 22.2
2014-Aug-18 07:27 055 2 gusting 6 22.2
2014-Aug-18 07:12 073 0 gusting 3 21.7
2014-Aug-18 06:57 055 2 gusting 5 21.7
2014-Aug-18 06:42 028 21.1
2014-Aug-18 06:27 053 3 gusting 6 20.6
2014-Aug-18 06:12 057 2 gusting 6 20.6
2014-Aug-18 05:57 049 0 gusting 4 21.1
2014-Aug-18 04:42 063 21.1